Location: ??
(35.4824°N, 139.4679°E)
Time: 08:00:34
(UTC+00:00)

Cosmos 1656 - Pass Details

Date: 29 October 2020
Orbit: 797 x 851 km, 71.1° (Epoch: 02 December)

Event Time Altitude Azimuth Distance (km) Brightness Sun altitude
Exits shadow 18:51:03 41° 187° (S) 1,200 4.3 -27.1°
Drops below altitude 10° 18:54:45 10° 171° (S) 2,453 6.2 -26.4°
Sets 18:57:11 0° 169° (SSE) 3,378 7.0 -25.9°
